Skip Page Navigation
NASA JPL Caltech
NASA Logo - Jet Propulsion Laboratory + View the NASA Portal
+ Center for Near-Earth Object Studies
JPL Home Earth Solar System Stars & Galaxies Technology
JPL Solar System Dynamics
BODIES ORBITS EPHEMERIDES TOOLS PHYSICAL DATA DISCOVERY FAQ SITE MAP
JPL Small-Body Database Browser
Search: [ help ]  
97334 (1999 XY256)
Classification: Main-belt Asteroid          SPK-ID: 2097334
Ephemeris | Orbit Diagram | Orbital Elements | Mission Design | Physical Parameters | Discovery Circumstances | Close-Approach Data ]

[ hide orbit diagram ]
Orbit Diagram
[ switch to new HTML5 viewer ]

Note: This Java-based orbit viewer will eventually be retired.

Note: Make sure you have Java enabled on your browser to see the applet. This applet is provided as a 3D orbit visualization tool. The applet was implemented using two-body methods, and hence should not be used for determining accurate long-term trajectories (over several years or decades) or planetary encounter circumstances. For accurate long-term ephemerides, please instead use our Horizons system.

Note: If the applet is not working, here are some notes that might help.
Orbit Viewer

Additional Notes: the orbits shown in the applet are color coded. The planets are white lines, and the asteroid/comet is a blue line. The bright white line indicates the portion of the orbit that is above the ecliptic plane, and the darker portion is below the ecliptic plane. Likewise for the asteroid/comet orbit, the light blue indicates the portion above the ecliptic plane, and the dark blue the portion below the ecliptic plane.

Orbit Viewer applet originally written and kindly provided by Osamu Ajiki (AstroArts), and further modified by Ron Baalke (JPL).


Orbital Elements at Epoch 2459000.5 (2020-May-31.0) TDB
Reference: JPL 23 (heliocentric ecliptic J2000)
 Element Value Uncertainty (1-sigma)   Units 
e .03232517866094935 7.7944e-08  
a 3.008158190138663 2.2922e-08 au
q 2.910918939202033 2.3147e-07 au
i 10.45895908639999 7.9269e-06 deg
node 39.44021739603257 2.8657e-05 deg
peri 146.7438826019803 6.4008e-05 deg
M 218.8035963506394 5.8262e-05 deg
tp 2459747.930072345467
(2022-Jun-17.43007235)
0.00031128 TDB
period 1905.677617062923
5.22
2.1782e-05
5.964e-08
d
yr
n .1889091821075386 2.1592e-09 deg/d
Q 3.105397441075293 2.3663e-08 au
  Orbit Determination Parameters
   # obs. used (total)      830  
   data-arc span      7649 days (20.94 yr)  
   first obs. used      1999-10-13  
   last obs. used      2020-09-21  
   planetary ephem.      DE431  
   SB-pert. ephem.      SB431-N16  
   condition code      0  
   norm. resid. RMS      .58404  
   source      ORB  
   producer      Otto Matic  
   solution date      2020-Oct-22 19:28:18  

Additional Information
 Earth MOID = 1.91377 au 
 Jupiter MOID = 1.86022 au 
 T_jup = 3.224 
[ show covariance matrix ]

Ephemeris | Orbit Diagram | Orbital Elements | Mission Design | Physical Parameters | Discovery Circumstances | Close-Approach Data ]

Physical Parameter Table
Parameter Symbol Value Units Sigma Reference Notes
absolute magnitude H 14.2   n/a MPO412727  
diameter diameter 5.043 km 0.380 urn:nasa:pds:neowise_diameters_albedos::2.0[mainbelt] (http://adsabs.harvard.edu/abs/2011ApJ...741...68M)  
geometric albedo albedo 0.159   0.029 urn:nasa:pds:neowise_diameters_albedos::2.0[mainbelt] (http://adsabs.harvard.edu/abs/2011ApJ...741...68M)  

97334 (1999 XY256)          Discovered 1999-Dec-07 by CSS at Catalina
Reference: 20050224/Numbers.arcLast Updated: 2005-02-28

[ hide close-approach data ]
Close-Approach Data   ...sorted by Date/Time (TDB)
Date/Time (TDB) Time Uncertainty
(days_HH:MM)
Body Nominal Distance (au) Minimum Distance (au) Maximum Distance (au) V-relative (km/s) V-infinity (km/s) JD (TDB) Time Uncertainty (minutes) Semi-major axis (km) Semi-minor axis (km) range-LOV angle (deg) N-sigma BP Orbit Ref. Reference Modified
1905-Aug-27 17:37 00:04 Jupiter 1.97318716567133 1.97318561309941 1.97318871824762 4.18082792632843 4.07686028590727 2417085.233727485 3.73564796143685 176.002154513384 20.8135317317096 -65.8423536182697 2403887.24955964 T 23 CATAB v2.0f-lin.ifort 2020-Oct-22 19:28:29 2020-Oct-22 19:28
1952-Apr-09 14:03 00:02 Jupiter 1.8745843883284 1.87458361409344 1.8745851625639 4.02858206545488 3.91481576358687 2434112.085257594 2.16293417727702 145.627499831743 29.2249896058456 -82.8251709569014 1823391.77595566 T 23 CATAB v2.0f-lin.ifort 2020-Oct-22 19:28:29 2020-Oct-22 19:28
1998-Nov-16 11:15 < 00:01 Jupiter 1.91326265718925 1.91326197660943 1.91326333776907 3.76343857675655 3.64390557304732 2451133.969019614 0.625951381387393 117.36685673551 26.3723499386729 -84.716776524831 1850872.55685536 T 23 CATAB v2.0f-lin.ifort 2020-Oct-22 19:28:29 2020-Oct-22 19:28
2036-Apr-06 10:20 < 00:01 Jupiter 1.9910116735612 1.9910111785588 1.99101216856372 4.13321447769632 4.02897202278954 2464789.930495879 0.765900602344728 58.2433016221753 16.3363650686506 -76.2586157821681 2577393.04293462 T 23 CATAB v2.0f-lin.ifort 2020-Oct-22 19:28:29 2020-Oct-22 19:28
2082-Nov-17 17:31 00:02 Jupiter 1.87953502413156 1.87953437076441 1.87953567749956 4.05259574870657 3.93982507234211 2481816.230148305 2.30709561557717 130.599237199375 22.3368412908133 -81.7024481224343 2014539.8923188 T 23 CATAB v2.0f-lin.ifort 2020-Oct-22 19:28:29 2020-Oct-22 19:28
2129-Jun-28 21:42 00:04 Jupiter 1.89450225534067 1.89450107785972 1.89450343283875 3.84491192649516 3.72681602589649 2498840.404426362 3.97122418762022 350.751613440521 25.6333685379316 -81.3987195632467 1824253.67979217 T 23 CATAB v2.0f-lin.ifort 2020-Oct-22 19:28:29 2020-Oct-22 19:28

Alternate Designations
 1999 XY256 = 2001 CY30 
Ephemeris | Orbit Diagram | Orbital Elements | Mission Design | Physical Parameters | Discovery Circumstances | Close-Approach Data ]
ABOUT SSD CREDITS/AWARDS PRIVACY/COPYRIGHT GLOSSARY LINKS
FirstGov 2020-Oct-27 09:45 UT
(server date/time)  
NASA Home Page
Site Manager:   Ryan S. Park
Webmaster  Alan B. Chamberlin